• In Czech Republic
  • List of Countries
  • For 7 days
  • Water Temperature
  • Satellite Maps
  • Weather Map
  • Weather Widgets
  • user-avatar
    Login

    Hourly Weather Sutton in Ashfield

    Today, 19 November, Sunday

    Time Temperature Precipitation Wind Pressure Humidity
    00:00 +2°C° 0 mm 3 mps 750 mmHg 77%
    01:00 +2°C° 0 mm 3 mps 750 mmHg 77%
    02:00 +1°C° 0 mm 3 mps 750 mmHg 76%
    03:00 +1°C° 0 mm 3 mps 750 mmHg 76%
    04:00 +1°C° 0 mm 3 mps 750 mmHg 76%
    05:00 +1°C° 0 mm 3 mps 751 mmHg 76%
    06:00 0°C° 0 mm 3 mps 751 mmHg 76%
    07:00 +2°C° 0 mm 2 mps 751 mmHg 75%
    08:00 +2°C° 0 mm 2 mps 751 mmHg 75%
    09:00 +2°C° 0 mm 2 mps 752 mmHg 74%
    10:00 +4°C° 0 mm 2 mps 752 mmHg 71%
    11:00 +5°C° 0 mm 2 mps 752 mmHg 67%
    12:00 +6°C° 0 mm 2 mps 752 mmHg 63%
    13:00 +6°C° 0 mm 2 mps 752 mmHg 66%
    14:00 +6°C° 0 mm 2 mps 751 mmHg 69%
    15:00 +5°C° 0 mm 2 mps 751 mmHg 71%
    16:00 +5°C° 0 mm 2 mps 751 mmHg 75%
    17:00 +4°C° 0 mm 2 mps 751 mmHg 80%
    18:00 +3°C° 0 mm 2 mps 751 mmHg 84%
    19:00 +3°C° 0 mm 2 mps 751 mmHg 85%
    20:00 +4°C° 0 mm 2 mps 750 mmHg 86%
    21:00 +4°C° 0 mm 2 mps 750 mmHg 86%
    22:00 +3°C° 0 mm 3 mps 749 mmHg 87%
    23:00 +3°C° 0 mm 3 mps 749 mmHg 88%

    Tomorrow, 20 November, Monday

    Time Temperature Precipitation Wind Pressure Humidity
    00:00 +3°C° 0 mm 4 mps 748 mmHg 89%
    01:00 +4°C° 0.4 mm 4 mps 747 mmHg 90%
    02:00 +5°C° 0.4 mm 5 mps 747 mmHg 92%
    03:00 +5°C° 0.4 mm 6 mps 746 mmHg 93%
    04:00 +7°C° 0.3 mm 6 mps 745 mmHg 92%
    05:00 +8°C° 0.3 mm 6 mps 744 mmHg 91%
    06:00 +8°C° 0.3 mm 6 mps 744 mmHg 90%
    07:00 +9°C° 0.1 mm 6 mps 743 mmHg 90%
    08:00 +9°C° 0.1 mm 6 mps 743 mmHg 90%
    09:00 +10°C° 0.1 mm 6 mps 743 mmHg 89%
    10:00 +10°C° 0 mm 6 mps 743 mmHg 87%
    11:00 +11°C° 0 mm 7 mps 743 mmHg 84%
    12:00 +11°C° 0 mm 7 mps 743 mmHg 82%
    13:00 +11°C° 0 mm 7 mps 742 mmHg 81%
    14:00 +11°C° 0 mm 6 mps 742 mmHg 81%
    15:00 +11°C° 0 mm 6 mps 742 mmHg 81%
    16:00 +11°C° 0.1 mm 6 mps 742 mmHg 84%
    17:00 +10°C° 0.1 mm 5 mps 742 mmHg 86%
    18:00 +10°C° 0.1 mm 5 mps 742 mmHg 88%
    19:00 +10°C° 0 mm 4 mps 742 mmHg 90%
    20:00 +10°C° 0 mm 4 mps 742 mmHg 91%
    21:00 +10°C° 0 mm 3 mps 743 mmHg 93%
    22:00 +10°C° 0 mm 3 mps 743 mmHg 93%
    23:00 +10°C° 0 mm 3 mps 743 mmHg 94%

    Day after tomorrow, 21 November, Tuesday

    Time Temperature Precipitation Wind Pressure Humidity
    00:00 +10°C° 0 mm 2 mps 743 mmHg 95%
    01:00 +10°C° 0.5 mm 2 mps 743 mmHg 95%
    02:00 +10°C° 0.5 mm 2 mps 743 mmHg 96%
    03:00 +10°C° 0.5 mm 2 mps 743 mmHg 96%
    04:00 +10°C° 0.1 mm 3 mps 742 mmHg 96%
    05:00 +10°C° 0.1 mm 3 mps 742 mmHg 95%
    06:00 +10°C° 0.1 mm 3 mps 742 mmHg 95%
    07:00 +11°C° 0 mm 4 mps 741 mmHg 94%
    08:00 +11°C° 0 mm 4 mps 741 mmHg 94%
    09:00 +10°C° 0 mm 5 mps 741 mmHg 93%
    10:00 +10°C° 0 mm 5 mps 741 mmHg 90%
    11:00 +10°C° 0 mm 6 mps 740 mmHg 86%
    12:00 +10°C° 0 mm 6 mps 740 mmHg 83%
    13:00 +10°C° 0 mm 6 mps 739 mmHg 83%
    14:00 +10°C° 0 mm 6 mps 739 mmHg 83%
    15:00 +10°C° 0 mm 6 mps 738 mmHg 84%
    16:00 +11°C° 0.1 mm 7 mps 737 mmHg 84%
    17:00 +11°C° 0.1 mm 7 mps 737 mmHg 84%
    18:00 +11°C° 0.1 mm 8 mps 736 mmHg 83%
    19:00 +11°C° 0.2 mm 8 mps 736 mmHg 84%
    20:00 +11°C° 0.2 mm 9 mps 735 mmHg 84%
    21:00 +12°C° 0.2 mm 9 mps 735 mmHg 85%
    22:00 +12°C° 0.2 mm 9 mps 735 mmHg 84%
    23:00 +12°C° 0.2 mm 9 mps 735 mmHg 84%

    22 November, Wednesday

    Time Temperature Precipitation Wind Pressure Humidity
    00:00 +11°C° 0.2 mm 9 mps 735 mmHg 83%
    01:00 +12°C° 0.1 mm 9 mps 734 mmHg 83%
    02:00 +12°C° 0.1 mm 9 mps 734 mmHg 82%
    03:00 +12°C° 0.1 mm 9 mps 734 mmHg 82%
    04:00 +11°C° 0 mm 9 mps 734 mmHg 83%
    05:00 +11°C° 0 mm 8 mps 734 mmHg 83%
    06:00 +11°C° 0 mm 8 mps 733 mmHg 83%
    07:00 +11°C° 0 mm 8 mps 733 mmHg 83%
    08:00 +11°C° 0 mm 8 mps 733 mmHg 82%
    09:00 +11°C° 0 mm 9 mps 733 mmHg 81%
    10:00 +12°C° 0 mm 9 mps 732 mmHg 79%
    11:00 +12°C° 0 mm 9 mps 732 mmHg 77%
    12:00 +12°C° 0 mm 10 mps 731 mmHg 75%
    13:00 +12°C° 0.2 mm 10 mps 731 mmHg 76%
    14:00 +12°C° 0.2 mm 11 mps 730 mmHg 76%
    15:00 +12°C° 0.2 mm 11 mps 729 mmHg 76%
    16:00 +12°C° 0.3 mm 11 mps 728 mmHg 78%
    17:00 +12°C° 0.3 mm 10 mps 728 mmHg 79%
    18:00 +12°C° 0.3 mm 10 mps 727 mmHg 80%
    19:00 +12°C° 0.3 mm 10 mps 727 mmHg 78%
    20:00 +12°C° 0.3 mm 10 mps 727 mmHg 77%
    21:00 +12°C° 0.3 mm 10 mps 727 mmHg 75%
    22:00 +11°C° 0.1 mm 10 mps 728 mmHg 76%
    23:00 +11°C° 0.1 mm 9 mps 729 mmHg 77%

    23 November, Thursday

    Time Temperature Precipitation Wind Pressure Humidity
    00:00 +11°C° 0.1 mm 9 mps 729 mmHg 78%
    01:00 +11°C° 0.1 mm 9 mps 730 mmHg 78%
    02:00 +11°C° 0.1 mm 9 mps 731 mmHg 78%
    03:00 +11°C° 0.1 mm 8 mps 732 mmHg 78%
    04:00 +10°C° 0 mm 8 mps 733 mmHg 77%
    05:00 +9°C° 0 mm 7 mps 734 mmHg 77%
    06:00 +8°C° 0 mm 6 mps 735 mmHg 77%
    07:00 +9°C° 0 mm 6 mps 735 mmHg 80%
    08:00 +9°C° 0 mm 5 mps 736 mmHg 83%
    09:00 +9°C° 0 mm 5 mps 736 mmHg 86%
    10:00 +10°C° 0 mm 6 mps 736 mmHg 85%
    11:00 +11°C° 0 mm 7 mps 736 mmHg 83%
    12:00 +12°C° 0 mm 7 mps 736 mmHg 82%
    13:00 +12°C° 0 mm 7 mps 736 mmHg 80%
    14:00 +12°C° 0 mm 7 mps 736 mmHg 78%
    15:00 +14°C° 0 mm 7 mps 735 mmHg 76%
    16:00 +12°C° 0.1 mm 8 mps 735 mmHg 78%
    17:00 +12°C° 0.1 mm 8 mps 735 mmHg 80%
    18:00 +12°C° 0.1 mm 8 mps 735 mmHg 82%
    19:00 +12°C° 0.3 mm 8 mps 735 mmHg 82%
    20:00 +12°C° 0.3 mm 8 mps 735 mmHg 83%
    21:00 +12°C° 0.3 mm 9 mps 735 mmHg 84%
    22:00 +12°C° 0.5 mm 9 mps 735 mmHg 83%
    23:00 +12°C° 0.5 mm 8 mps 735 mmHg 83%

    24 November, Friday

    Time Temperature Precipitation Wind Pressure Humidity
    00:00 +12°C° 0.5 mm 8 mps 735 mmHg 83%
    01:00 +12°C° 0.6 mm 8 mps 735 mmHg 83%
    02:00 +12°C° 0.6 mm 8 mps 735 mmHg 83%
    03:00 +12°C° 0.6 mm 8 mps 735 mmHg 83%
    04:00 +11°C° 0.4 mm 8 mps 735 mmHg 84%
    05:00 +11°C° 0.4 mm 8 mps 735 mmHg 84%
    06:00 +11°C° 0.4 mm 7 mps 735 mmHg 85%
    07:00 +11°C° 0.5 mm 7 mps 736 mmHg 85%
    08:00 +10°C° 0.5 mm 7 mps 736 mmHg 86%
    09:00 +10°C° 0.5 mm 6 mps 736 mmHg 86%
    10:00 +10°C° 0.3 mm 6 mps 737 mmHg 85%
    11:00 +10°C° 0.3 mm 5 mps 737 mmHg 84%
    12:00 +10°C° 0.3 mm 5 mps 737 mmHg 83%
    13:00 +11°C° 0.8 mm 4 mps 737 mmHg 85%
    14:00 +11°C° 0.8 mm 3 mps 737 mmHg 86%
    15:00 +10°C° 0.8 mm 2 mps 737 mmHg 88%
    16:00 +10°C° 0.6 mm 2 mps 737 mmHg 88%
    17:00 +11°C° 0.6 mm 1 mps 737 mmHg 89%
    18:00 +10°C° 0.6 mm 1 mps 737 mmHg 89%
    19:00 +9°C° 1.6 mm 2 mps 736 mmHg 90%
    20:00 +9°C° 1.6 mm 2 mps 736 mmHg 91%
    21:00 +8°C° 1.6 mm 3 mps 736 mmHg 92%
    22:00 +7°C° 2.5 mm 4 mps 735 mmHg 92%
    23:00 +7°C° 2.5 mm 4 mps 734 mmHg 91%
    Show more